Mayport NS, FL

11:18 AM EDT on May 25, 2017 (GMT -0400)
Mayport Naval Station / Adm. David L. McDonald Field

Weather History for KNRB - March, 2013

Change the Weather History Date:

Saturday, March 23, 2013

  Actual Average Record
Temperature  
Mean Temperature 62 °F -  
Max Temperature 71 °F 69 °F 86 °F (2011)
Min Temperature 55 °F 55 °F 48 °F (1998)
Degree Days  
Heating Degree Days 2    
Growing Degree Days 12 (Base 50)    
Moisture  
Dew Point 61 °F    
Average Humidity 95    
Maximum Humidity 100    
Minimum Humidity 75    
Precipitation  
Precipitation 1.98 in - - ()
Sea Level Pressure  
Sea Level Pressure 29.88 in    
Wind  
Wind Speed 7 mph (ENE)    
Max Wind Speed 18 mph    
Max Gust Speed 23 mph    
Visibility 6 miles    
Events Rain , Thunderstorm    
Averages and records for this station are not official NWS values.
T = Trace of Precipitation, MM = Missing Value Source: NWS Daily Summary

Daily Weather History Graph

Daily Weather History Graph

Search for Another Location

Airport or City:

Trip Planner

Search our weather history database for the weather conditions in past years. The results will help you decide how hot, cold, wet, or windy it might be!

Date:

Astronomy

Mar. 23, 2013 Rise Set
Actual Time 7:25 AM EDT 7:39 PM EDT
Civil Twilight 7:01 AM EDT 8:03 PM EDT
Nautical Twilight 6:33 AM EDT 8:31 PM EDT
Astronomical Twilight 6:05 AM EDT 8:59 PM EDT
Moon 4:17 PM EDT (3/23) 4:46 AM EDT (3/23)
Length of Visible Light 13h 01m
Length of Day
12h 13m
Waxing Gibbous, 85% of the Moon is Illuminated
Mar 23
Waxing Gibbous
Mar 27
Full
Apr 3
Last Quarter
Apr 10
New
Apr 18
First Quarter

Hourly Weather History & Observations

Time (EDT) Temp. Dew Point Humidity Pressure Visibility Wind Dir Wind Speed Gust Speed Precip Events Conditions
12:52 AM 60.1 °F 52.0 °F 75% 30.01 in 10.0 mi ENE 8.1 mph - N/A   Clear
1:52 AM 59.0 °F 54.0 °F 83% 29.99 in 10.0 mi NE 9.2 mph - N/A   Clear
2:52 AM 60.1 °F 55.0 °F 83% 29.98 in 10.0 mi NNE 9.2 mph - N/A   Clear
3:52 AM 60.1 °F 55.9 °F 86% 29.95 in 10.0 mi NNE 5.8 mph - N/A   Clear
4:52 AM 61.0 °F 57.9 °F 90% 29.93 in 10.0 mi East 3.5 mph - N/A   Overcast
5:52 AM 62.1 °F 60.1 °F 93% 29.93 in 10.0 mi SE 5.8 mph - N/A   Overcast
6:52 AM 62.1 °F 60.1 °F 93% 29.94 in 10.0 mi SSE 5.8 mph - N/A   Overcast
7:52 AM 62.1 °F 61.0 °F 96% 29.93 in 10.0 mi SSE 5.8 mph - N/A   Mostly Cloudy
8:52 AM 64.9 °F 62.1 °F 90% 29.93 in 10.0 mi SSE 8.1 mph - N/A   Mostly Cloudy
9:52 AM 66.9 °F 63.0 °F 87% 29.93 in 10.0 mi SSE 5.8 mph - N/A   Overcast
10:52 AM 70.0 °F 63.0 °F 78% 29.91 in 10.0 mi SSE 5.8 mph - N/A   Overcast
11:24 AM 69.8 °F 64.4 °F 83% 29.93 in 10.0 mi WSW 5.8 mph - 0.00 in Rain Light Rain
11:52 AM 68.0 °F 66.0 °F 93% 29.91 in 10.0 mi South 6.9 mph - 0.00 in Rain Light Rain
12:11 PM 66.2 °F 66.2 °F 100% 29.89 in 10.0 mi SSE 6.9 mph - 0.01 in Rain Light Rain
12:25 PM 66.2 °F 66.2 °F 100% 29.88 in 8.0 mi South 4.6 mph - 0.02 in Rain , Thunderstorm Light Thunderstorms and Rain
12:52 PM 66.9 °F 66.0 °F 97% 29.88 in 6.0 mi SSE 9.2 mph - 0.06 in Rain , Thunderstorm Thunderstorms and Rain
1:31 PM 66.2 °F 66.2 °F 100% 29.89 in 6.0 mi NNE 5.8 mph - N/A Rain Light Rain
1:52 PM 64.9 °F 64.0 °F 97% 29.91 in 6.0 mi West 5.8 mph 21.9 mph N/A Rain , Thunderstorm Light Thunderstorms and Rain
2:07 PM 64.4 °F 64.4 °F 100% 29.89 in 4.0 mi West 5.8 mph 21.9 mph 0.04 in Rain , Thunderstorm Thunderstorms and Rain
2:52 PM 64.9 °F 64.0 °F 97% 29.87 in 4.0 mi SSE 5.8 mph - 0.14 in Rain , Thunderstorm Thunderstorms and Rain
3:11 PM 64.4 °F 64.4 °F 100% 29.85 in 6.0 mi Calm Calm - 0.01 in Rain Light Rain
3:52 PM 64.9 °F 64.9 °F 100% 29.85 in 5.0 mi South 4.6 mph - 0.04 in Rain Light Rain
4:01 PM 64.4 °F 64.4 °F 100% 29.84 in 5.0 mi Calm Calm - 0.02 in Rain , Thunderstorm Light Thunderstorms and Rain
4:08 PM 64.4 °F 64.4 °F 100% 29.85 in 2.0 mi Calm Calm - 0.10 in Rain , Thunderstorm Thunderstorms and Rain
4:20 PM 64.4 °F 64.4 °F 100% 29.83 in 5.0 mi Calm Calm - 0.22 in Rain Light Rain
4:52 PM 57.0 °F 57.0 °F 100% 29.83 in 4.0 mi NE 18.4 mph - 0.26 in Rain , Thunderstorm Thunderstorms and Rain
5:19 PM 57.2 °F 55.4 °F 94% 29.84 in 4.0 mi NNE 16.1 mph 23.0 mph 0.02 in Rain , Thunderstorm Thunderstorms and Rain
5:32 PM 57.2 °F 55.4 °F 94% 29.82 in 2.0 mi NE 17.3 mph - 0.12 in Rain , Thunderstorm Thunderstorms and Rain
5:52 PM 57.0 °F 55.9 °F 96% 29.86 in 2.0 mi NNE 13.8 mph 20.7 mph 0.23 in Rain , Thunderstorm Thunderstorms and Rain
6:20 PM 55.4 °F 55.4 °F 100% 29.84 in 1.0 mi East 11.5 mph - 0.51 in Rain , Thunderstorm Thunderstorms and Rain
6:35 PM 57.2 °F 57.2 °F 100% 29.87 in 4.0 mi NE 9.2 mph - 0.55 in Rain Rain
6:52 PM 57.0 °F 57.0 °F 100% 29.87 in 4.0 mi NE 9.2 mph - 0.57 in Rain Rain
7:52 PM 59.0 °F 59.0 °F 100% 29.87 in 5.0 mi NNW 4.6 mph - 0.13 in Rain Light Rain
8:34 PM 59.0 °F 59.0 °F 100% 29.89 in 5.0 mi North 8.1 mph - 0.02 in Rain Light Rain
8:52 PM 59.0 °F 57.9 °F 96% 29.87 in 5.0 mi NNE 9.2 mph - 0.04 in Rain Light Rain
9:08 PM 59.0 °F 59.0 °F 100% 29.90 in 4.0 mi North 6.9 mph - 0.07 in Rain , Thunderstorm Thunderstorms and Rain
9:39 PM 60.8 °F 59.0 °F 94% 29.84 in 3.0 mi ESE 9.2 mph - 0.27 in Rain Heavy Rain
9:52 PM 60.1 °F 60.1 °F 100% 29.87 in 3.0 mi NE 5.8 mph - 0.31 in Rain Heavy Rain
10:52 PM 60.1 °F 60.1 °F 100% 29.86 in 3.0 mi NNE 8.1 mph - 0.13 in Rain Heavy Rain
11:00 PM 60.8 °F 60.8 °F 100% 29.86 in 2.5 mi NNE 8.1 mph - 0.00 in Rain , Thunderstorm Light Thunderstorms and Rain
11:23 PM 60.8 °F 60.8 °F 100% 29.82 in 3.0 mi ESE 9.2 mph - 0.02 in Rain , Thunderstorm Light Thunderstorms and Rain
11:44 PM 62.6 °F 62.6 °F 100% 29.81 in 2.5 mi Calm Calm - 0.03 in Thunderstorm Overcast
11:52 PM 62.1 °F 62.1 °F 100% 29.81 in 2.0 mi Calm Calm - 0.07 in Rain , Thunderstorm Heavy Thunderstorms and Rain